Stations météo

réclame
Mon MeteoGroup
Bezier-Vias, France (7638): Température de l'air & dewpoint: 17.10.2018 12:00:00 - 23.10.2018 12:00:00 (CEST)Bezier-Vias, France (7638): Vitesse du vent & gusts: 17.10.2018 12:00:00 - 23.10.2018 12:00:00 (CEST)Bezier-Vias, France (7638): Direction du vent: 17.10.2018 12:00:00 - 23.10.2018 12:00:00 (CEST)Bezier-Vias, France (7638): reduced air pressure: 17.10.2018 12:00:00 - 23.10.2018 12:00:00 (CEST)Bezier-Vias, France (7638): visibility: 17.10.2018 12:00:00 - 23.10.2018 12:00:00 (CEST)Bezier-Vias, France (7638): Quantités de précipitations: 17.10.2018 12:00:00 - 23.10.2018 12:00:00 (CEST)
Date & Time tt [°C] td [°C] ff [km/h] ff [knt] fx [km/h] fx [knt] dd ppp [hPa] vv [km] rr [mm]
23.10.2018 12:00:00 - - - - - - - - - -
23.10.2018 11:00:00 16,0 9,0 17 9 24 13 W 1026,4 20 0,0
23.10.2018 10:00:00 12,8 8,9 14 8 22 12 W 1026,6 24 0,0
23.10.2018 09:00:00 10,6 8,9 13 7 20 11 W 1026,4 13 0,0
23.10.2018 08:00:00 9,4 8,2 10 5 19 10 W 1026,1 17 0,2
23.10.2018 07:00:00 8,5 7,3 5 3 12 6 W 1026,0 17 0,0
23.10.2018 06:00:00 8,3 6,9 11 6 15 8 W 1025,8 14 0,0
23.10.2018 05:00:00 8,8 7,1 10 5 13 7 W 1025,7 15 0,0
23.10.2018 04:00:00 9,9 8,3 11 6 16 9 W 1025,5 17 0,0
23.10.2018 03:00:00 10,4 8,3 14 7 18 10 WNW 1025,3 18 0,0
23.10.2018 02:00:00 11,6 9,2 9 5 18 10 W 1025,4 24 0,0
23.10.2018 01:00:00 10,7 8,3 12 7 18 10 WNW 1025,3 24 0,0
23.10.2018 00:00:00 10,4 8,3 12 7 15 8 W 1024,9 16 0,0
22.10.2018 23:00:00 10,8 8,2 6 3 12 7 WSW 1024,8 18 0,0
22.10.2018 22:00:00 11,6 8,4 9 5 13 7 WNW 1024,3 20 0,0
22.10.2018 21:00:00 13,5 8,8 11 6 19 10 W 1023,6 29 0,0
22.10.2018 20:00:00 14,8 8,9 12 6 22 12 W 1022,7 28 0,0
22.10.2018 19:00:00 17,0 9,7 15 8 25 13 W 1021,8 28 0,0
22.10.2018 18:00:00 20,4 9,9 17 9 32 17 W 1020,8 23 0,0
22.10.2018 17:00:00 21,7 10,5 16 9 37 20 W 1020,6 21 0,0
22.10.2018 16:00:00 21,7 10,5 9 5 22 12 S 1020,5 19 0,0
22.10.2018 15:00:00 22,9 6,6 11 6 29 16 NNW 1021,0 44 0,0
22.10.2018 14:00:00 21,6 7,8 6 3 21 11 WNW 1021,4 50 0,0
22.10.2018 13:00:00 20,7 9,6 8 4 22 12 W 1022,0 47 0,0
22.10.2018 12:00:00 18,4 11,2 9 5 20 11 WNW 1022,1 19 0,0
22.10.2018 11:00:00 16,6 12,5 15 8 21 11 W 1021,9 5 0,0
22.10.2018 10:00:00 14,7 13,1 9 5 13 7 W 1022,1 11 0,0
22.10.2018 09:00:00 11,2 10,1 10 5 11 6 WNW 1021,7 11 0,0
22.10.2018 08:00:00 10,8 9,4 8 5 13 7 WNW 1021,1 9 0,2
22.10.2018 07:00:00 10,6 8,7 9 5 10 6 W 1021,1 15 0,0
22.10.2018 06:00:00 11,6 9,7 5 3 11 6 NNW 1020,7 24 0,0
22.10.2018 05:00:00 11,8 9,9 8 4 12 6 WNW 1020,6 19 0,0
22.10.2018 04:00:00 12,4 10,3 4 2 13 7 NNW 1020,5 20 0,0
22.10.2018 03:00:00 12,4 10,3 12 6 16 9 WNW 1020,1 19 0,0
22.10.2018 02:00:00 14,6 11,6 5 3 18 10 NNW 1019,7 25 0,0
22.10.2018 01:00:00 15,4 11,8 15 8 29 16 WNW 1018,5 27 0,0
22.10.2018 00:00:00 16,5 11,6 19 11 33 18 W 1018,1 31 0,0
21.10.2018 23:00:00 16,5 11,6 23 12 34 18 WNW 1017,8 31 0,0
21.10.2018 22:00:00 16,4 12,0 14 8 28 15 WNW 1017,6 27 0,0
21.10.2018 21:00:00 17,1 12,0 13 7 20 11 NW 1017,6 28 0,0
21.10.2018 20:00:00 18,3 10,6 11 6 23 12 NW 1017,0 41 0,0
21.10.2018 19:00:00 20,4 11,1 10 6 27 15 W 1016,4 48 0,0
21.10.2018 18:00:00 23,4 13,6 15 8 33 18 W 1016,3 35 0,0
21.10.2018 17:00:00 24,7 12,6 22 12 34 18 W 1016,7 32 0,0
21.10.2018 16:00:00 24,5 14,0 19 10 31 17 WSW 1017,5 36 0,0
21.10.2018 15:00:00 23,9 14,0 15 8 26 14 W 1018,6 20 0,0
21.10.2018 14:00:00 22,6 13,9 14 8 26 14 W 1019,5 41 0,0
21.10.2018 13:00:00 21,1 14,3 14 8 23 12 W 1020,7 45 0,0
21.10.2018 12:00:00 19,4 13,1 8 4 15 8 WSW 1021,5 20 0,0
21.10.2018 11:00:00 16,7 13,8 5 3 16 9 W 1022,4 19 0,0
21.10.2018 10:00:00 14,5 13,7 12 6 20 11 NW 1022,7 11 0,0
21.10.2018 09:00:00 13,7 13,1 8 4 16 9 NW 1022,3 5 0,0
21.10.2018 08:00:00 13,0 12,4 13 7 19 10 W 1021,9 4,5 0,0
21.10.2018 07:00:00 12,8 12,0 10 6 18 10 WNW 1022,2 3,0 0,0
21.10.2018 06:00:00 12,6 11,8 11 6 17 9 W 1022,5 3,3 0,0
21.10.2018 05:00:00 12,6 11,8 9 5 10 6 NW 1022,7 3,0 0,0
21.10.2018 04:00:00 13,0 12,2 6 3 9 5 WNW 1023,0 3,0 0,2
21.10.2018 03:00:00 13,5 12,7 6 3 12 6 WNW 1023,2 3,3 0,0
21.10.2018 02:00:00 14,3 13,5 5 3 13 7 W 1023,4 3,3 0,0
21.10.2018 01:00:00 15,1 14,3 9 5 13 7 W 1023,6 3,8 0,0
21.10.2018 00:00:00 14,5 13,5 7 4 10 5 WNW 1023,9 2,0 0,0
20.10.2018 23:00:00 15,0 13,9 6 3 11 6 N 1023,7 4,6 0,0
20.10.2018 22:00:00 15,1 13,5 9 5 11 6 WNW 1023,5 4,5 0,0
20.10.2018 21:00:00 16,7 14,7 3 2 5 3 ENE 1023,3 10 0,0
20.10.2018 20:00:00 18,1 15,0 3 2 7 4 E 1023,1 12 0,0
20.10.2018 19:00:00 19,8 15,6 5 3 11 6 S 1022,5 13 0,0
20.10.2018 18:00:00 20,7 15,0 7 4 12 7 S 1022,3 18 0,0
20.10.2018 17:00:00 21,5 14,9 7 4 12 6 S 1022,3 18 0,0
20.10.2018 16:00:00 21,4 14,1 9 5 26 14 S 1022,5 20 0,0
20.10.2018 15:00:00 25,1 12,3 9 5 26 14 N 1022,6 19 0,0
20.10.2018 14:00:00 24,2 11,5 16 9 27 15 NE 1023,1 43 0,0
20.10.2018 13:00:00 23,4 12,1 9 5 20 11 N 1023,8 20 0,0
20.10.2018 12:00:00 21,8 15,2 6 3 16 9 NW 1023,8 20 0,0
20.10.2018 11:00:00 19,0 15,5 4 2 13 7 NW 1023,9 19 0,0
20.10.2018 10:00:00 16,1 15,0 7 4 10 6 NW 1023,3 16 0,0
20.10.2018 09:00:00 14,4 13,6 4 2 10 5 NNW 1022,6 13 0,0
20.10.2018 08:00:00 13,6 12,7 6 3 9 5 NNE 1021,6 11 0,0
20.10.2018 07:00:00 13,4 12,5 4 2 11 6 WNW 1021,3 8 0,2
20.10.2018 06:00:00 13,6 12,7 3 2 6 4 NW 1020,6 9 0,0
20.10.2018 05:00:00 13,7 12,8 5 3 9 5 WNW 1020,4 9 0,0
20.10.2018 04:00:00 14,2 13,2 5 3 10 5 W 1020,4 9 0,0
20.10.2018 03:00:00 14,3 13,2 8 4 10 5 NNW 1020,5 11 0,0
20.10.2018 02:00:00 14,8 13,5 3 1 6 4 W 1020,5 8 0,0
20.10.2018 01:00:00 15,7 14,2 2 1 9 5 N 1020,3 14 0,0
20.10.2018 00:00:00 16,0 14,5 5 3 9 5 NW 1020,0 11 0,0
19.10.2018 23:00:00 16,0 14,4 3 1 6 3 NNW 1019,8 10 0,0
19.10.2018 22:00:00 16,5 14,3 3 1 10 5 N 1019,3 10 0,0
19.10.2018 21:00:00 17,7 15,3 4 2 5 3 WSW 1018,9 12 0,0
19.10.2018 20:00:00 18,7 15,2 3 1 7 4 W 1018,6 16 0,0
19.10.2018 19:00:00 20,1 15,1 5 3 7 4 WSW 1018,0 17 0,0
19.10.2018 18:00:00 21,8 14,4 4 2 11 6 S 1017,6 25 0,0
19.10.2018 17:00:00 22,8 14,1 9 5 18 10 S 1017,7 26 0,0
19.10.2018 16:00:00 23,6 13,2 6 3 16 9 SE 1017,6 34 0,0
19.10.2018 15:00:00 24,8 12,1 5 3 13 7 NE 1017,6 19 0,0
19.10.2018 14:00:00 23,4 12,4 4 2 15 8 NNE 1018,1 29 0,0
19.10.2018 13:00:00 22,0 12,0 10 5 18 10 ENE 1018,4 20 0,0
19.10.2018 12:00:00 20,6 14,7 7 4 15 8 N 1018,5 20 0,0
19.10.2018 11:00:00 18,4 16,6 6 3 15 8 NW 1018,4 17 0,0
19.10.2018 10:00:00 15,3 14,5 5 3 11 6 W 1018,5 4,6 0,0
19.10.2018 09:00:00 13,7 12,9 4 2 9 5 WNW 1017,3 13 0,0
19.10.2018 08:00:00 13,2 12,4 7 4 9 5 NW 1016,4 10 0,0
19.10.2018 07:00:00 13,6 12,8 6 3 11 6 W 1016,2 9 0,2
19.10.2018 06:00:00 14,3 13,5 3 1 8 4 W 1016,2 14 0,0
19.10.2018 05:00:00 14,4 13,6 4 2 10 5 N 1015,9 9 0,0
19.10.2018 04:00:00 14,4 13,6 4 2 12 6 NW 1015,9 4,7 0,0
19.10.2018 03:00:00 14,7 13,9 5 3 9 5 WNW 1015,7 7 0,0
19.10.2018 02:00:00 14,9 13,9 6 3 11 6 WNW 1015,9 4,5 0,0
19.10.2018 01:00:00 15,6 14,6 9 5 11 6 WNW 1015,8 6 0,0
19.10.2018 00:00:00 15,5 14,4 7 4 12 6 WNW 1015,7 7 0,0
18.10.2018 23:00:00 15,8 14,5 5 3 10 5 W 1015,3 5 0,0
18.10.2018 22:00:00 16,6 15,1 8 5 17 9 WNW 1014,9 11 0,0
18.10.2018 21:00:00 17,2 15,4 8 5 21 11 W 1014,5 11 0,0
18.10.2018 20:00:00 18,0 16,0 12 7 19 10 W 1014,2 17 0,0
18.10.2018 19:00:00 19,2 16,2 12 7 19 10 W 1013,7 20 0,0
18.10.2018 18:00:00 21,1 17,1 9 5 16 8 W 1013,4 25 0,0
18.10.2018 17:00:00 22,1 17,0 6 4 15 8 WSW 1013,5 26 0,0
18.10.2018 16:00:00 24,2 12,8 6 4 14 7 SE 1013,5 35 0,0
18.10.2018 15:00:00 23,3 13,7 4 2 16 9 N 1013,8 20 0,0
18.10.2018 14:00:00 22,9 14,2 5 3 11 6 NW 1014,3 18 0,0
18.10.2018 13:00:00 21,2 15,3 5 3 14 8 N 1014,8 37 0,0
18.10.2018 12:00:00 19,9 15,9 10 6 15 8 NNE 1014,8 20 0,0
18.10.2018 11:00:00 18,1 15,7 10 5 14 8 NNE 1014,9 20 0,0
18.10.2018 10:00:00 17,2 15,2 10 5 18 10 NNE 1014,7 19 0,0
18.10.2018 09:00:00 16,5 14,9 14 7 21 11 N 1014,4 18 0,0
18.10.2018 08:00:00 16,1 15,1 8 4 14 8 N 1014,1 13 0,0
18.10.2018 07:00:00 16,2 15,2 10 6 15 8 N 1014,0 13 0,4
18.10.2018 06:00:00 16,4 15,4 3 2 14 7 NNW 1014,1 10 0,0
18.10.2018 05:00:00 16,4 15,4 7 4 11 6 NNE 1014,0 8 0,2
18.10.2018 04:00:00 16,4 15,4 0 0 11 6 N 1014,4 11 0,4
18.10.2018 03:00:00 16,7 15,6 5 3 9 5 E 1014,8 2,4 1,4
18.10.2018 02:00:00 16,8 15,7 5 3 16 9 NNW 1015,0 13 0,2
18.10.2018 01:00:00 16,8 15,7 9 5 14 8 NNW 1015,1 9 0,4
18.10.2018 00:00:00 17,1 15,8 3 2 9 5 N 1015,7 8 0,2
17.10.2018 23:00:00 17,4 15,7 5 3 18 10 ENE 1015,8 4,2 0,6
17.10.2018 22:00:00 17,5 15,8 5 3 11 6 WNW 1015,3 12 0,0
17.10.2018 21:00:00 17,9 15,9 5 3 9 5 N 1015,2 16 0,0
17.10.2018 20:00:00 18,0 16,0 6 4 10 6 N 1014,8 16 0,0
17.10.2018 19:00:00 18,8 16,0 5 3 6 3 NW 1014,7 20 0,0
17.10.2018 18:00:00 19,6 15,9 4 2 10 6 WNW 1014,7 29 0,0
17.10.2018 17:00:00 20,1 15,1 6 3 14 7 NW 1015,2 31 0,0
17.10.2018 16:00:00 20,1 14,7 9 5 17 9 NNW 1015,3 41 0,0
17.10.2018 15:00:00 19,6 15,3 10 6 22 12 NW 1015,7 34 0,0
17.10.2018 14:00:00 18,5 16,8 11 6 17 9 NW 1016,3 13 0,4
17.10.2018 13:00:00 17,6 15,2 8 4 20 11 ESE 1017,5 3,8 0,4
17.10.2018 12:00:00 18,0 14,7 14 8 20 11 E 1017,6 19 0,0

tt = Température de l'air
td = dewpoint
ff = Vitesse du vent
fx = gusts
dd = Direction du vent
ppp = reduced air pressure
vv = visibility
rr = Quantités de précipitations

stations d'obs. à proximité